Year,Month,Day,Hour,Minute,Value (Times are PST for temperature in C)
2006,07,21,00,00,20.60
2006,07,21,00,01,20.50
2006,07,21,00,02,20.50
2006,07,21,00,03,20.50
2006,07,21,00,04,20.50
2006,07,21,00,05,20.50
2006,07,21,00,06,20.50
2006,07,21,00,07,20.40
2006,07,21,00,08,20.40
2006,07,21,00,09,20.40
2006,07,21,00,10,20.40
2006,07,21,00,11,20.40
2006,07,21,00,12,20.50
2006,07,21,00,13,20.50
2006,07,21,00,14,20.50
2006,07,21,00,15,20.50
2006,07,21,00,16,20.50
2006,07,21,00,17,20.50
2006,07,21,00,18,20.50
2006,07,21,00,19,20.40
2006,07,21,00,20,20.40
2006,07,21,00,21,20.40
2006,07,21,00,22,20.40
2006,07,21,00,23,20.40
2006,07,21,00,24,20.40
2006,07,21,00,25,20.30
2006,07,21,00,26,20.30
2006,07,21,00,27,20.30
2006,07,21,00,28,20.30
2006,07,21,00,29,20.30
2006,07,21,00,30,20.30
2006,07,21,00,31,20.30
2006,07,21,00,32,20.20
2006,07,21,00,33,20.20
2006,07,21,00,34,20.20
2006,07,21,00,35,20.20
2006,07,21,00,36,20.20
2006,07,21,00,37,20.20
2006,07,21,00,38,20.10
2006,07,21,00,39,20.10
2006,07,21,00,40,20.00
2006,07,21,00,41,19.90
2006,07,21,00,42,19.90
2006,07,21,00,43,19.90
2006,07,21,00,44,19.90
2006,07,21,00,45,19.90
2006,07,21,00,46,19.90
2006,07,21,00,47,19.90
2006,07,21,00,48,19.90
2006,07,21,00,49,19.90
2006,07,21,00,50,19.90
2006,07,21,00,51,19.80
2006,07,21,00,52,19.80
2006,07,21,00,53,19.70
2006,07,21,00,54,19.70
2006,07,21,00,55,19.60
2006,07,21,00,56,19.60
2006,07,21,00,57,19.50
2006,07,21,00,58,19.50
2006,07,21,00,59,19.40
2006,07,21,01,00,19.30
2006,07,21,01,01,19.30
2006,07,21,01,02,19.10
2006,07,21,01,03,19.10
2006,07,21,01,04,19.00
2006,07,21,01,05,18.90
2006,07,21,01,06,18.80
2006,07,21,01,07,18.80
2006,07,21,01,08,18.80
2006,07,21,01,09,18.80
2006,07,21,01,10,18.80
2006,07,21,01,11,18.80
2006,07,21,01,12,18.80
2006,07,21,01,13,18.70
2006,07,21,01,14,18.70
2006,07,21,01,15,18.70
2006,07,21,01,16,18.70
2006,07,21,01,17,18.70
2006,07,21,01,18,18.70
2006,07,21,01,19,18.70
2006,07,21,01,20,18.80
2006,07,21,01,21,18.80
2006,07,21,01,22,18.90
2006,07,21,01,23,18.90
2006,07,21,01,24,18.90
2006,07,21,01,25,18.90
2006,07,21,01,26,18.90
2006,07,21,01,27,18.90
2006,07,21,01,28,18.90
2006,07,21,01,29,18.90
2006,07,21,01,30,18.90
2006,07,21,01,31,18.90
2006,07,21,01,32,18.90
2006,07,21,01,33,19.00
2006,07,21,01,34,19.10
2006,07,21,01,35,19.10
2006,07,21,01,36,19.10
2006,07,21,01,37,19.10
2006,07,21,01,38,19.10
2006,07,21,01,39,19.20
2006,07,21,01,40,19.20
2006,07,21,01,41,19.20
2006,07,21,01,42,19.20
2006,07,21,01,43,19.30
2006,07,21,01,44,19.30
2006,07,21,01,45,19.30
2006,07,21,01,46,19.40
2006,07,21,01,47,19.40
2006,07,21,01,48,19.40
2006,07,21,01,49,19.40
2006,07,21,01,50,19.50
2006,07,21,01,51,19.50
2006,07,21,01,52,19.50
2006,07,21,01,53,19.50
2006,07,21,01,54,19.50
2006,07,21,01,55,19.50
2006,07,21,01,56,19.50
2006,07,21,01,57,19.50
2006,07,21,01,58,19.50
2006,07,21,01,59,19.60
2006,07,21,02,00,19.50
2006,07,21,02,01,19.50
2006,07,21,02,02,19.50
2006,07,21,02,03,19.50
2006,07,21,02,04,19.50
2006,07,21,02,05,19.50
2006,07,21,02,06,19.50
2006,07,21,02,07,19.50
2006,07,21,02,08,19.40
2006,07,21,02,09,19.40
2006,07,21,02,10,19.40
2006,07,21,02,11,19.40
2006,07,21,02,12,19.40
2006,07,21,02,13,19.30
2006,07,21,02,14,19.30
2006,07,21,02,15,19.30
2006,07,21,02,16,19.30
2006,07,21,02,17,19.30
2006,07,21,02,18,19.30
2006,07,21,02,19,19.20
2006,07,21,02,20,19.20
2006,07,21,02,21,19.20
2006,07,21,02,22,19.20
2006,07,21,02,23,19.20
2006,07,21,02,24,19.20
2006,07,21,02,25,19.30
2006,07,21,02,26,19.30
2006,07,21,02,27,19.30
2006,07,21,02,28,19.30
2006,07,21,02,29,19.30
2006,07,21,02,30,19.30
2006,07,21,02,31,19.40
2006,07,21,02,32,19.40
2006,07,21,02,33,19.40
2006,07,21,02,34,19.40
2006,07,21,02,35,19.40
2006,07,21,02,36,19.40
2006,07,21,02,37,19.30
2006,07,21,02,38,19.20
2006,07,21,02,39,19.20
2006,07,21,02,40,19.10
2006,07,21,02,41,19.10
2006,07,21,02,42,19.10
2006,07,21,02,43,18.90
2006,07,21,02,44,18.90
2006,07,21,02,45,18.90
2006,07,21,02,46,18.90
2006,07,21,02,47,18.90
2006,07,21,02,48,18.90
2006,07,21,02,49,18.90
2006,07,21,02,50,18.90
2006,07,21,02,51,19.00
2006,07,21,02,52,19.10
2006,07,21,02,53,19.10
2006,07,21,02,54,19.10
2006,07,21,02,55,19.10
2006,07,21,02,56,19.00
2006,07,21,02,57,18.90
2006,07,21,02,58,18.90
2006,07,21,02,59,18.90
2006,07,21,03,00,18.80
2006,07,21,03,01,18.80
2006,07,21,03,02,18.80
2006,07,21,03,03,18.80
2006,07,21,03,04,18.80
2006,07,21,03,05,18.80
2006,07,21,03,06,18.80
2006,07,21,03,07,18.80
2006,07,21,03,08,18.70
2006,07,21,03,09,18.70
2006,07,21,03,10,18.70
2006,07,21,03,11,18.70
2006,07,21,03,12,18.70
2006,07,21,03,13,18.60
2006,07,21,03,14,18.60
2006,07,21,03,15,18.60
2006,07,21,03,16,18.60
2006,07,21,03,17,18.50
2006,07,21,03,18,18.50
2006,07,21,03,19,18.50
2006,07,21,03,20,18.50
2006,07,21,03,21,18.50
2006,07,21,03,22,18.50
2006,07,21,03,23,18.40
2006,07,21,03,24,18.40
2006,07,21,03,25,18.40
2006,07,21,03,26,18.40
2006,07,21,03,27,18.40
2006,07,21,03,28,18.50
2006,07,21,03,29,18.50
2006,07,21,03,30,18.60
2006,07,21,03,31,18.60
2006,07,21,03,32,18.70
2006,07,21,03,33,18.70
2006,07,21,03,34,18.70
2006,07,21,03,35,18.80
2006,07,21,03,36,18.80
2006,07,21,03,37,18.90
2006,07,21,03,38,18.90
2006,07,21,03,39,18.90
2006,07,21,03,40,18.90
2006,07,21,03,41,18.90
2006,07,21,03,42,18.90
2006,07,21,03,43,18.90
2006,07,21,03,44,18.80
2006,07,21,03,45,18.80
2006,07,21,03,46,18.80
2006,07,21,03,47,18.80
2006,07,21,03,48,18.80
2006,07,21,03,49,18.80
2006,07,21,03,50,18.80
2006,07,21,03,51,18.80
2006,07,21,03,52,18.80
2006,07,21,03,53,18.80
2006,07,21,03,54,18.80
2006,07,21,03,55,18.80
2006,07,21,03,56,18.70
2006,07,21,03,57,18.70
2006,07,21,03,58,18.70
2006,07,21,03,59,18.60
2006,07,21,04,00,18.60
2006,07,21,04,01,18.50
2006,07,21,04,02,18.50
2006,07,21,04,03,18.50
2006,07,21,04,04,18.40
2006,07,21,04,05,18.40
2006,07,21,04,06,18.30
2006,07,21,04,07,18.30
2006,07,21,04,08,18.30
2006,07,21,04,09,18.20
2006,07,21,04,10,18.20
2006,07,21,04,11,18.20
2006,07,21,04,12,18.20
2006,07,21,04,13,18.20
2006,07,21,04,14,18.20
2006,07,21,04,15,18.20
2006,07,21,04,16,18.20
2006,07,21,04,17,18.20
2006,07,21,04,18,18.20
2006,07,21,04,19,18.20
2006,07,21,04,20,18.20
2006,07,21,04,21,18.20
2006,07,21,04,22,18.20
2006,07,21,04,23,18.20
2006,07,21,04,24,18.20
2006,07,21,04,25,18.20
2006,07,21,04,26,18.20
2006,07,21,04,27,18.10
2006,07,21,04,28,18.10
2006,07,21,04,29,18.10
2006,07,21,04,30,18.00
2006,07,21,04,31,17.90
2006,07,21,04,32,17.90
2006,07,21,04,33,17.90
2006,07,21,04,34,17.90
2006,07,21,04,35,17.90
2006,07,21,04,36,18.00
2006,07,21,04,37,18.10
2006,07,21,04,38,18.10
2006,07,21,04,39,18.10
2006,07,21,04,40,18.10
2006,07,21,04,41,18.10
2006,07,21,04,42,18.10
2006,07,21,04,43,18.10
2006,07,21,04,44,18.20
2006,07,21,04,45,18.20
2006,07,21,04,46,18.20
2006,07,21,04,47,18.20
2006,07,21,04,48,18.20
2006,07,21,04,49,18.20
2006,07,21,04,50,18.20
2006,07,21,04,51,18.20
2006,07,21,04,52,18.20
2006,07,21,04,53,18.20
2006,07,21,04,54,18.20
2006,07,21,04,55,18.20
2006,07,21,04,56,18.20
2006,07,21,04,57,18.20
2006,07,21,04,58,18.20
2006,07,21,04,59,18.20
2006,07,21,05,00,18.20
2006,07,21,05,01,18.20
2006,07,21,05,02,18.20
2006,07,21,05,03,18.20
2006,07,21,05,04,18.10
2006,07,21,05,05,18.10
2006,07,21,05,06,18.10
2006,07,21,05,07,18.10
2006,07,21,05,08,18.10
2006,07,21,05,09,18.10
2006,07,21,05,10,18.10
2006,07,21,05,11,18.10
2006,07,21,05,12,17.90
2006,07,21,05,13,17.90
2006,07,21,05,14,17.90
2006,07,21,05,15,17.90
2006,07,21,05,16,17.90
2006,07,21,05,17,17.90
2006,07,21,05,18,17.90
2006,07,21,05,19,18.00
2006,07,21,05,20,18.10
2006,07,21,05,21,18.10
2006,07,21,05,22,18.10
2006,07,21,05,23,18.10
2006,07,21,05,24,18.10
2006,07,21,05,25,18.20
2006,07,21,05,26,18.10
2006,07,21,05,27,18.10
2006,07,21,05,28,18.10
2006,07,21,05,29,18.10
2006,07,21,05,30,18.00
2006,07,21,05,31,17.90
2006,07,21,05,32,17.90
2006,07,21,05,33,17.90
2006,07,21,05,34,17.90
2006,07,21,05,35,17.90
2006,07,21,05,36,17.90
2006,07,21,05,37,17.90
2006,07,21,05,38,17.80
2006,07,21,05,39,17.80
2006,07,21,05,40,17.80
2006,07,21,05,41,17.80
2006,07,21,05,42,17.80
2006,07,21,05,43,17.70
2006,07,21,05,44,17.70
2006,07,21,05,45,17.70
2006,07,21,05,46,17.70
2006,07,21,05,47,17.60
2006,07,21,05,48,17.60
2006,07,21,05,49,17.60
2006,07,21,05,50,17.60
2006,07,21,05,51,17.60
2006,07,21,05,52,17.60
2006,07,21,05,53,17.60
2006,07,21,05,54,17.60
2006,07,21,05,55,17.60
2006,07,21,05,56,17.60
2006,07,21,05,57,17.60
2006,07,21,05,58,17.60
2006,07,21,05,59,17.60
2006,07,21,06,00,17.60
2006,07,21,06,01,17.60
2006,07,21,06,02,17.50
2006,07,21,06,03,17.50
2006,07,21,06,04,17.50
2006,07,21,06,05,17.50
2006,07,21,06,06,17.50
2006,07,21,06,07,17.50
2006,07,21,06,08,17.60
2006,07,21,06,09,17.60
2006,07,21,06,10,17.60
2006,07,21,06,11,17.60
2006,07,21,06,12,17.60
2006,07,21,06,13,17.70
2006,07,21,06,14,17.70
2006,07,21,06,15,17.80
2006,07,21,06,16,17.80
2006,07,21,06,17,17.90
2006,07,21,06,18,17.90
2006,07,21,06,19,18.00
2006,07,21,06,20,18.20
2006,07,21,06,21,18.20
2006,07,21,06,22,18.20
2006,07,21,06,23,18.20
2006,07,21,06,24,18.20
2006,07,21,06,25,18.20
2006,07,21,06,26,18.20
2006,07,21,06,27,18.30
2006,07,21,06,28,18.30
2006,07,21,06,29,18.30
2006,07,21,06,30,18.30
2006,07,21,06,31,18.40
2006,07,21,06,32,18.40
2006,07,21,06,33,18.50
2006,07,21,06,34,18.50
2006,07,21,06,35,18.50
2006,07,21,06,36,18.50
2006,07,21,06,37,18.50
2006,07,21,06,38,18.50
2006,07,21,06,39,18.50
2006,07,21,06,40,18.50
2006,07,21,06,41,18.50
2006,07,21,06,42,18.50
2006,07,21,06,43,18.50
2006,07,21,06,44,18.60
2006,07,21,06,45,18.60
2006,07,21,06,46,18.60
2006,07,21,06,47,18.70
2006,07,21,06,48,18.70
2006,07,21,06,49,18.70
2006,07,21,06,50,18.80
2006,07,21,06,51,18.80
2006,07,21,06,52,18.80
2006,07,21,06,53,18.80
2006,07,21,06,54,18.90
2006,07,21,06,55,18.90
2006,07,21,06,56,18.90
2006,07,21,06,57,18.90
2006,07,21,06,58,18.90
2006,07,21,06,59,18.90
2006,07,21,07,00,18.90
2006,07,21,07,01,18.90
2006,07,21,07,02,19.10
2006,07,21,07,03,19.10
2006,07,21,07,04,19.10
2006,07,21,07,05,19.10
2006,07,21,07,06,19.10
2006,07,21,07,07,19.10
2006,07,21,07,08,19.10
2006,07,21,07,09,19.10
2006,07,21,07,10,19.10
2006,07,21,07,11,19.10
2006,07,21,07,12,19.20
2006,07,21,07,13,19.20
2006,07,21,07,14,19.20
2006,07,21,07,15,19.20
2006,07,21,07,16,19.30
2006,07,21,07,17,19.30
2006,07,21,07,18,19.30
2006,07,21,07,19,19.40
2006,07,21,07,20,19.40
2006,07,21,07,21,19.40
2006,07,21,07,22,19.50
2006,07,21,07,23,19.50
2006,07,21,07,24,19.50
2006,07,21,07,25,19.60
2006,07,21,07,26,19.60
2006,07,21,07,27,19.60
2006,07,21,07,28,19.70
2006,07,21,07,29,19.70
2006,07,21,07,30,19.80
2006,07,21,07,31,19.80
2006,07,21,07,32,19.90
2006,07,21,07,33,19.90
2006,07,21,07,34,19.90
2006,07,21,07,35,19.90
2006,07,21,07,36,19.90
2006,07,21,07,37,20.10
2006,07,21,07,38,20.10
2006,07,21,07,39,20.10
2006,07,21,07,40,20.10
2006,07,21,07,41,20.20
2006,07,21,07,42,20.20
2006,07,21,07,43,20.20
2006,07,21,07,44,20.20
2006,07,21,07,45,20.20
2006,07,21,07,46,20.20
2006,07,21,07,47,20.20
2006,07,21,07,48,20.30
2006,07,21,07,49,20.30
2006,07,21,07,50,20.30
2006,07,21,07,51,20.30
2006,07,21,07,52,20.30
2006,07,21,07,53,20.40
2006,07,21,07,54,20.40
2006,07,21,07,55,20.40
2006,07,21,07,56,20.40
2006,07,21,07,57,20.50
2006,07,21,07,58,20.50
2006,07,21,07,59,20.50
2006,07,21,08,00,20.60
2006,07,21,08,01,20.60
2006,07,21,08,02,20.60
2006,07,21,08,03,20.70
2006,07,21,08,04,20.70
2006,07,21,08,05,20.70
2006,07,21,08,06,20.80
2006,07,21,08,07,20.80
2006,07,21,08,08,20.90
2006,07,21,08,09,21.00
2006,07,21,08,10,21.00
2006,07,21,08,11,21.10
2006,07,21,08,12,21.20
2006,07,21,08,13,21.30
2006,07,21,08,14,21.30
2006,07,21,08,15,21.40
2006,07,21,08,16,21.50
2006,07,21,08,17,21.60
2006,07,21,08,18,21.60
2006,07,21,08,19,21.60
2006,07,21,08,20,21.70
2006,07,21,08,21,21.80
2006,07,21,08,22,21.90
2006,07,21,08,23,22.00
2006,07,21,08,24,22.10
2006,07,21,08,25,22.20
2006,07,21,08,26,22.30
2006,07,21,08,27,22.40
2006,07,21,08,28,22.50
2006,07,21,08,29,22.50
2006,07,21,08,30,22.60
2006,07,21,08,31,22.60
2006,07,21,08,32,22.70
2006,07,21,08,33,22.70
2006,07,21,08,34,22.80
2006,07,21,08,35,22.80
2006,07,21,08,36,22.90
2006,07,21,08,37,22.90
2006,07,21,08,38,22.90
2006,07,21,08,39,22.90
2006,07,21,08,40,22.90
2006,07,21,08,41,22.90
2006,07,21,08,42,23.10
2006,07,21,08,43,23.10
2006,07,21,08,44,23.10
2006,07,21,08,45,23.20
2006,07,21,08,46,23.20
2006,07,21,08,47,23.30
2006,07,21,08,48,23.30
2006,07,21,08,49,23.30
2006,07,21,08,50,23.40
2006,07,21,08,51,23.40
2006,07,21,08,52,23.50
2006,07,21,08,53,23.60
2006,07,21,08,54,23.60
2006,07,21,08,55,23.60
2006,07,21,08,56,23.60
2006,07,21,08,57,23.70
2006,07,21,08,58,23.70
2006,07,21,08,59,23.70
2006,07,21,09,00,23.70
2006,07,21,09,01,23.70
2006,07,21,09,02,23.80
2006,07,21,09,03,23.80
2006,07,21,09,04,23.80
2006,07,21,09,05,23.80
2006,07,21,09,06,23.90
2006,07,21,09,07,24.00
2006,07,21,09,08,24.10
2006,07,21,09,09,24.10
2006,07,21,09,10,24.10
2006,07,21,09,11,24.20
2006,07,21,09,12,24.20
2006,07,21,09,13,24.30
2006,07,21,09,14,24.30
2006,07,21,09,15,24.40
2006,07,21,09,16,24.50
2006,07,21,09,17,24.50
2006,07,21,09,18,24.60
2006,07,21,09,19,24.60
2006,07,21,09,20,24.70
2006,07,21,09,21,24.70
2006,07,21,09,22,24.70
2006,07,21,09,23,24.80
2006,07,21,09,24,24.80
2006,07,21,09,25,24.90
2006,07,21,09,26,24.90
2006,07,21,09,27,25.00
2006,07,21,09,28,25.00
2006,07,21,09,29,25.00
2006,07,21,09,30,25.10
2006,07,21,09,31,25.20
2006,07,21,09,32,25.20
2006,07,21,09,33,25.20
2006,07,21,09,34,25.20
2006,07,21,09,35,25.20
2006,07,21,09,36,25.30
2006,07,21,09,37,25.30
2006,07,21,09,38,25.40
2006,07,21,09,39,25.40
2006,07,21,09,40,25.50
2006,07,21,09,41,25.50
2006,07,21,09,42,25.60
2006,07,21,09,43,25.70
2006,07,21,09,44,25.80
2006,07,21,09,45,25.80
2006,07,21,09,46,25.80
2006,07,21,09,47,25.80
2006,07,21,09,48,25.90
2006,07,21,09,49,25.80
2006,07,21,09,50,25.80
2006,07,21,09,51,25.80
2006,07,21,09,52,25.80
2006,07,21,09,53,25.80
2006,07,21,09,54,25.80
2006,07,21,09,55,25.80
2006,07,21,09,56,25.80
2006,07,21,09,57,25.80
2006,07,21,09,58,25.90
2006,07,21,09,59,25.90
2006,07,21,10,00,26.00
2006,07,21,10,01,26.10
2006,07,21,10,02,26.30
2006,07,21,10,03,26.30
2006,07,21,10,04,26.30
2006,07,21,10,05,26.30
2006,07,21,10,06,26.30
2006,07,21,10,07,26.30
2006,07,21,10,08,26.40
2006,07,21,10,09,26.40
2006,07,21,10,10,26.40
2006,07,21,10,11,26.40
2006,07,21,10,12,26.40
2006,07,21,10,13,26.40
2006,07,21,10,14,26.40
2006,07,21,10,15,26.50
2006,07,21,10,16,26.50
2006,07,21,10,17,26.50
2006,07,21,10,18,26.60
2006,07,21,10,19,26.60
2006,07,21,10,20,26.60
2006,07,21,10,21,26.60
2006,07,21,10,22,26.60
2006,07,21,10,23,26.60
2006,07,21,10,24,26.60
2006,07,21,10,25,26.60
2006,07,21,10,26,26.60
2006,07,21,10,27,26.70
2006,07,21,10,28,26.70
2006,07,21,10,29,26.70
2006,07,21,10,30,26.80
2006,07,21,10,31,26.80
2006,07,21,10,32,26.80
2006,07,21,10,33,26.80
2006,07,21,10,34,26.80
2006,07,21,10,35,26.90
2006,07,21,10,36,26.90
2006,07,21,10,37,26.90
2006,07,21,10,38,26.90
2006,07,21,10,39,26.90
2006,07,21,10,40,27.00
2006,07,21,10,41,27.10
2006,07,21,10,42,27.10
2006,07,21,10,43,27.10
2006,07,21,10,44,27.20
2006,07,21,10,45,27.30
2006,07,21,10,46,27.40
2006,07,21,10,47,27.50
2006,07,21,10,48,27.60
2006,07,21,10,49,27.70
2006,07,21,10,50,27.80
2006,07,21,10,51,27.90
2006,07,21,10,52,27.90
2006,07,21,10,53,28.00
2006,07,21,10,54,28.00
2006,07,21,10,55,28.00
2006,07,21,10,56,28.00
2006,07,21,10,57,28.00
2006,07,21,10,58,28.00
2006,07,21,10,59,28.10
2006,07,21,11,00,28.10
2006,07,21,11,01,28.20
2006,07,21,11,02,28.30
2006,07,21,11,03,28.30
2006,07,21,11,04,28.40
2006,07,21,11,05,28.50
2006,07,21,11,06,28.60
2006,07,21,11,07,28.70
2006,07,21,11,08,28.80
2006,07,21,11,09,28.80
2006,07,21,11,10,28.80
2006,07,21,11,11,28.90
2006,07,21,11,12,28.90
2006,07,21,11,13,28.90
2006,07,21,11,14,28.90
2006,07,21,11,15,28.80
2006,07,21,11,16,28.80
2006,07,21,11,17,28.70
2006,07,21,11,18,28.70
2006,07,21,11,19,28.70
2006,07,21,11,20,28.60
2006,07,21,11,21,28.50
2006,07,21,11,22,28.40
2006,07,21,11,23,28.50
2006,07,21,11,24,28.60
2006,07,21,11,25,28.70
2006,07,21,11,26,28.80
2006,07,21,11,27,28.80
2006,07,21,11,28,28.80
2006,07,21,11,29,28.80
2006,07,21,11,30,28.80
2006,07,21,11,31,28.80
2006,07,21,11,32,28.90
2006,07,21,11,33,28.90
2006,07,21,11,34,29.10
2006,07,21,11,35,29.10
2006,07,21,11,36,29.00
2006,07,21,11,37,28.90
2006,07,21,11,38,29.00
2006,07,21,11,39,29.10
2006,07,21,11,40,29.10
2006,07,21,11,41,29.20
2006,07,21,11,42,29.20
2006,07,21,11,43,29.00
2006,07,21,11,44,28.90
2006,07,21,11,45,28.90
2006,07,21,11,46,28.90
2006,07,21,11,47,28.90
2006,07,21,11,48,29.00
2006,07,21,11,49,29.10
2006,07,21,11,50,29.20
2006,07,21,11,51,29.20
2006,07,21,11,52,29.30
2006,07,21,11,53,29.30
2006,07,21,11,54,29.40
2006,07,21,11,55,29.40
2006,07,21,11,56,29.50
2006,07,21,11,57,29.60
2006,07,21,11,58,29.60
2006,07,21,11,59,29.60
2006,07,21,12,00,29.70
2006,07,21,12,01,29.70
2006,07,21,12,02,29.70
2006,07,21,12,03,29.80
2006,07,21,12,04,29.70
2006,07,21,12,05,29.70
2006,07,21,12,06,29.60
2006,07,21,12,07,29.60
2006,07,21,12,08,29.60
2006,07,21,12,09,29.60
2006,07,21,12,10,29.60
2006,07,21,12,11,29.60
2006,07,21,12,12,29.60
2006,07,21,12,13,29.60
2006,07,21,12,14,29.70
2006,07,21,12,15,29.70
2006,07,21,12,16,29.80
2006,07,21,12,17,29.80
2006,07,21,12,18,29.90
2006,07,21,12,19,29.90
2006,07,21,12,20,29.90
2006,07,21,12,21,29.90
2006,07,21,12,22,29.80
2006,07,21,12,23,29.90
2006,07,21,12,24,29.90
2006,07,21,12,25,29.90
2006,07,21,12,26,30.10
2006,07,21,12,27,30.10
2006,07,21,12,28,30.20
2006,07,21,12,29,30.20
2006,07,21,12,30,30.30
2006,07,21,12,31,30.40
2006,07,21,12,32,30.50
2006,07,21,12,33,30.60
2006,07,21,12,34,30.50
2006,07,21,12,35,30.40
2006,07,21,12,36,30.30
2006,07,21,12,37,30.30
2006,07,21,12,38,30.50
2006,07,21,12,39,30.60
2006,07,21,12,40,30.70
2006,07,21,12,41,30.70
2006,07,21,12,42,30.80
2006,07,21,12,43,30.80
2006,07,21,12,44,30.90
2006,07,21,12,45,31.10
2006,07,21,12,46,31.20
2006,07,21,12,47,31.30
2006,07,21,12,48,31.40
2006,07,21,12,49,31.40
2006,07,21,12,50,31.40
2006,07,21,12,51,31.40
2006,07,21,12,52,31.40
2006,07,21,12,53,31.50
2006,07,21,12,54,31.60
2006,07,21,12,55,31.70
2006,07,21,12,56,31.60
2006,07,21,12,57,31.50
2006,07,21,12,58,31.40
2006,07,21,12,59,31.20
2006,07,21,13,00,31.10
2006,07,21,13,01,31.00
2006,07,21,13,02,30.90
2006,07,21,13,03,30.90
2006,07,21,13,04,30.80
2006,07,21,13,05,30.80
2006,07,21,13,06,30.70
2006,07,21,13,07,30.70
2006,07,21,13,08,30.70
2006,07,21,13,09,30.70
2006,07,21,13,10,30.60
2006,07,21,13,11,30.60
2006,07,21,13,12,30.70
2006,07,21,13,13,30.80
2006,07,21,13,14,30.80
2006,07,21,13,15,30.80
2006,07,21,13,16,30.80
2006,07,21,13,17,30.90
2006,07,21,13,18,31.10
2006,07,21,13,19,31.20
2006,07,21,13,20,31.40
2006,07,21,13,21,31.50
2006,07,21,13,22,31.80
2006,07,21,13,23,31.90
2006,07,21,13,24,32.00
2006,07,21,13,25,32.10
2006,07,21,13,26,32.20
2006,07,21,13,27,32.30
2006,07,21,13,28,32.40
2006,07,21,13,29,32.50
2006,07,21,13,30,32.60
2006,07,21,13,31,32.70
2006,07,21,13,32,32.80
2006,07,21,13,33,32.80
2006,07,21,13,34,32.80
2006,07,21,13,35,32.60
2006,07,21,13,36,32.50
2006,07,21,13,37,32.30
2006,07,21,13,38,32.20
2006,07,21,13,39,32.10
2006,07,21,13,40,32.10
2006,07,21,13,41,32.10
2006,07,21,13,42,32.10
2006,07,21,13,43,32.00
2006,07,21,13,44,31.90
2006,07,21,13,45,31.90
2006,07,21,13,46,32.00
2006,07,21,13,47,32.10
2006,07,21,13,48,32.20
2006,07,21,13,49,32.20
2006,07,21,13,50,32.20
2006,07,21,13,51,32.30
2006,07,21,13,52,32.30
2006,07,21,13,53,32.30
2006,07,21,13,54,32.30
2006,07,21,13,55,32.30
2006,07,21,13,56,32.30
2006,07,21,13,57,32.30
2006,07,21,13,58,32.40
2006,07,21,13,59,32.50
2006,07,21,14,00,32.50
2006,07,21,14,01,32.60
2006,07,21,14,02,32.60
2006,07,21,14,03,32.80
2006,07,21,14,04,32.90
2006,07,21,14,05,33.00
2006,07,21,14,06,33.00
2006,07,21,14,07,33.00
2006,07,21,14,08,33.10
2006,07,21,14,09,33.10
2006,07,21,14,10,33.10
2006,07,21,14,11,33.20
2006,07,21,14,12,33.20
2006,07,21,14,13,33.20
2006,07,21,14,14,33.20
2006,07,21,14,15,33.10
2006,07,21,14,16,33.10
2006,07,21,14,17,33.10
2006,07,21,14,18,33.20
2006,07,21,14,19,33.20
2006,07,21,14,20,33.40
2006,07,21,14,21,33.40
2006,07,21,14,22,33.40
2006,07,21,14,23,33.20
2006,07,21,14,24,33.20
2006,07,21,14,25,33.20
2006,07,21,14,26,33.20
2006,07,21,14,27,33.40
2006,07,21,14,28,33.20
2006,07,21,14,29,33.20
2006,07,21,14,30,33.20
2006,07,21,14,31,33.20
2006,07,21,14,32,33.30
2006,07,21,14,33,33.40
2006,07,21,14,34,33.40
2006,07,21,14,35,33.20
2006,07,21,14,36,33.00
2006,07,21,14,37,32.90
2006,07,21,14,38,32.90
2006,07,21,14,39,32.90
2006,07,21,14,40,32.90
2006,07,21,14,41,32.90
2006,07,21,14,42,33.00
2006,07,21,14,43,33.00
2006,07,21,14,44,33.20
2006,07,21,14,45,33.30
2006,07,21,14,46,33.40
2006,07,21,14,47,33.40
2006,07,21,14,48,33.40
2006,07,21,14,49,33.40
2006,07,21,14,50,33.50
2006,07,21,14,51,33.50
2006,07,21,14,52,33.60
2006,07,21,14,53,33.60
2006,07,21,14,54,33.60
2006,07,21,14,55,33.60
2006,07,21,14,56,33.70
2006,07,21,14,57,33.80
2006,07,21,14,58,33.90
2006,07,21,14,59,33.80
2006,07,21,15,00,33.80
2006,07,21,15,01,33.80
2006,07,21,15,02,33.80
2006,07,21,15,03,33.80
2006,07,21,15,04,33.70
2006,07,21,15,05,33.70
2006,07,21,15,06,33.70
2006,07,21,15,07,33.70
2006,07,21,15,08,33.80
2006,07,21,15,09,33.80
2006,07,21,15,10,34.00
2006,07,21,15,11,34.00
2006,07,21,15,12,33.80
2006,07,21,15,13,33.80
2006,07,21,15,14,33.80
2006,07,21,15,15,33.70
2006,07,21,15,16,33.80
2006,07,21,15,17,33.80
2006,07,21,15,18,33.80
2006,07,21,15,19,33.80
2006,07,21,15,20,33.80
2006,07,21,15,21,33.60
2006,07,21,15,22,33.60
2006,07,21,15,23,33.60
2006,07,21,15,24,33.70
2006,07,21,15,25,33.80
2006,07,21,15,26,33.90
2006,07,21,15,27,34.00
2006,07,21,15,28,34.10
2006,07,21,15,29,34.00
2006,07,21,15,30,33.80
2006,07,21,15,31,33.80
2006,07,21,15,32,33.70
2006,07,21,15,33,33.70
2006,07,21,15,34,33.60
2006,07,21,15,35,33.50
2006,07,21,15,36,33.50
2006,07,21,15,37,33.50
2006,07,21,15,38,33.50
2006,07,21,15,39,33.50
2006,07,21,15,40,33.60
2006,07,21,15,41,33.50
2006,07,21,15,42,33.60
2006,07,21,15,43,33.50
2006,07,21,15,44,33.40
2006,07,21,15,45,33.40
2006,07,21,15,46,33.40
2006,07,21,15,47,33.50
2006,07,21,15,48,33.60
2006,07,21,15,49,33.60
2006,07,21,15,50,33.60
2006,07,21,15,51,33.60
2006,07,21,15,52,33.70
2006,07,21,15,53,33.70
2006,07,21,15,54,33.80
2006,07,21,15,55,33.80
2006,07,21,15,56,33.60
2006,07,21,15,57,33.60
2006,07,21,15,58,33.70
2006,07,21,15,59,33.90
2006,07,21,16,00,34.00
2006,07,21,16,01,34.10
2006,07,21,16,02,34.10
2006,07,21,16,03,34.20
2006,07,21,16,04,34.10
2006,07,21,16,05,34.20
2006,07,21,16,06,34.20
2006,07,21,16,07,34.30
2006,07,21,16,08,34.40
2006,07,21,16,09,34.60
2006,07,21,16,10,34.70
2006,07,21,16,11,34.80
2006,07,21,16,12,34.90
2006,07,21,16,13,35.00
2006,07,21,16,14,35.10
2006,07,21,16,15,35.30
2006,07,21,16,16,35.40
2006,07,21,16,17,35.50
2006,07,21,16,18,35.50
2006,07,21,16,19,35.40
2006,07,21,16,20,35.30
2006,07,21,16,21,35.30
2006,07,21,16,22,35.30
2006,07,21,16,23,35.30
2006,07,21,16,24,35.20
2006,07,21,16,25,35.20
2006,07,21,16,26,35.10
2006,07,21,16,27,35.00
2006,07,21,16,28,35.00
2006,07,21,16,29,35.10
2006,07,21,16,30,35.10
2006,07,21,16,31,35.10
2006,07,21,16,32,35.10
2006,07,21,16,33,35.10
2006,07,21,16,34,35.10
2006,07,21,16,35,35.00
2006,07,21,16,36,34.90
2006,07,21,16,37,34.90
2006,07,21,16,38,34.90
2006,07,21,16,39,34.80
2006,07,21,16,40,34.80
2006,07,21,16,41,34.60
2006,07,21,16,42,34.40
2006,07,21,16,43,34.30
2006,07,21,16,44,34.30
2006,07,21,16,45,34.20
2006,07,21,16,46,34.20
2006,07,21,16,47,34.20
2006,07,21,16,48,34.20
2006,07,21,16,49,34.20
2006,07,21,16,50,34.10
2006,07,21,16,51,34.10
2006,07,21,16,52,34.10
2006,07,21,16,53,34.10
2006,07,21,16,54,34.10
2006,07,21,16,55,34.10
2006,07,21,16,56,34.00
2006,07,21,16,57,34.10
2006,07,21,16,58,34.20
2006,07,21,16,59,34.30
2006,07,21,17,00,34.40
2006,07,21,17,01,34.50
2006,07,21,17,02,34.60
2006,07,21,17,03,34.40
2006,07,21,17,04,34.30
2006,07,21,17,05,34.20
2006,07,21,17,06,34.20
2006,07,21,17,07,34.10
2006,07,21,17,08,34.10
2006,07,21,17,09,34.10
2006,07,21,17,10,34.20
2006,07,21,17,11,34.20
2006,07,21,17,12,34.30
2006,07,21,17,13,34.40
2006,07,21,17,14,34.40
2006,07,21,17,15,34.50
2006,07,21,17,16,34.60
2006,07,21,17,17,34.70
2006,07,21,17,18,34.60
2006,07,21,17,19,34.70